| time (UTC) | temp F | wind direction | speed knots | gust knots | rain 1hr in | rain 24hr in | rain mn in | humidity % | barometer mb |
| 20260503034054 | 51 | 103 | 1.7 | 6.1 | 0.00 | 0.15 | 0.00 | 78 | 1013.9 |
| 20260503033054 | 52 | 109 | 1.7 | 7.0 | 0.00 | 0.15 | 0.00 | 78 | 1013.9 |
| 20260503032053 | 52 | 156 | 1.7 | 5.2 | 0.00 | 0.15 | 0.00 | 78 | 1014.0 |
| 20260503031054 | 52 | 128 | 1.7 | 4.3 | 0.00 | 0.15 | 0.00 | 81 | 1014.1 |
| 20260503030054 | 53 | 199 | 1.7 | 3.5 | 0.00 | 0.15 | 0.00 | 79 | 1014.0 |
| 20260503025054 | 54 | 204 | 2.6 | 7.0 | 0.00 | 0.15 | 0.00 | 76 | 1013.8 |
| 20260503024056 | 55 | 205 | 5.2 | 7.8 | 0.00 | 0.15 | 0.00 | 75 | 1013.8 |
| 20260503023055 | 53 | 221 | 4.3 | 7.0 | 0.00 | 0.15 | 0.00 | 79 | 1014.0 |
| 20260503022053 | 52 | 226 | 1.7 | 5.2 | 0.00 | 0.15 | 0.00 | 85 | 1014.1 |
| 20260503021054 | 52 | 253 | 1.7 | 4.3 | 0.00 | 0.15 | 0.00 | 85 | 1014.1 |
| 20260503020055 | 53 | 282 | 2.6 | 6.1 | 0.00 | 0.15 | 0.00 | 85 | 1014.1 |
| 20260503015055 | 53 | 9 | 0.9 | 3.5 | 0.00 | 0.15 | 0.00 | 85 | 1014.1 |
| 20260503014054 | 53 | 137 | 1.7 | 4.3 | 0.00 | 0.15 | 0.00 | 84 | 1014.1 |
| 20260503013056 | 53 | 72 | 1.7 | 4.3 | 0.00 | 0.15 | 0.00 | 85 | 1014.1 |
| 20260503012056 | 53 | 326 | 1.7 | 3.5 | 0.00 | 0.15 | 0.00 | 85 | 1014.3 |
| 20260503011056 | 54 | 32 | 1.7 | 5.2 | 0.00 | 0.15 | 0.00 | 85 | 1014.3 |
| 20260503010057 | 54 | 233 | 1.7 | 4.3 | 0.00 | 0.15 | 0.00 | 85 | 1014.5 |
| 20260503005056 | 54 | 355 | 0.9 | 5.2 | 0.00 | 0.15 | 0.00 | 85 | 1014.5 |
| 20260503004056 | 54 | 355 | 0.9 | 4.3 | 0.00 | 0.15 | 0.00 | 84 | 1014.6 |
| 20260503003057 | 55 | 288 | 0.9 | 4.3 | 0.00 | 0.15 | 0.00 | 84 | 1014.6 |
| 20260503002056 | 55 | 196 | 1.7 | 5.2 | 0.00 | 0.15 | 0.00 | 84 | 1014.8 |
| 20260503001054 | 55 | 144 | 1.7 | 5.2 | 0.00 | 0.15 | 0.00 | 84 | 1014.8 |
| 20260502235107 | 55 | 206 | 1.7 | 6.1 | 0.00 | 0.15 | 0.00 | 83 | 1015.0 |
| 20260502234102 | 56 | 275 | 1.7 | 5.2 | 0.00 | 0.15 | 0.00 | 82 | 1015.0 |
| 20260502233104 | 56 | 215 | 1.7 | 5.2 | 0.00 | 0.15 | 0.00 | 82 | 1015.1 |
| 20260502232105 | 55 | 138 | 1.7 | 7.0 | 0.00 | 0.15 | 0.00 | 83 | 1015.2 |
| 20260502231101 | 54 | 264 | 0.9 | 3.5 | 0.00 | 0.15 | 0.00 | 87 | 1015.3 |
| 20260502225101 | 53 | 273 | 0.0 | 2.6 | 0.00 | 0.15 | 0.00 | 91 | 1015.6 |
| 20260502224102 | 53 | 20 | 0.0 | 2.6 | 0.00 | 0.15 | 0.00 | 91 | 1015.6 |
| 20260502223104 | 54 | 37 | 0.0 | 3.5 | 0.00 | 0.15 | 0.00 | 88 | 1015.5 |
| 20260502222101 | 54 | 29 | 0.9 | 2.6 | 0.00 | 0.15 | 0.00 | 88 | 1015.5 |
| 20260502221101 | 55 | 56 | 0.9 | 2.6 | 0.00 | 0.15 | 0.00 | 86 | 1015.4 |
| 20260502215108 | 55 | 52 | 0.9 | 2.6 | 0.00 | 0.15 | 0.15 | 87 | 1015.5 |
| 20260502214108 | 55 | 75 | 0.0 | 1.7 | 0.00 | 0.15 | 0.15 | 88 | 1015.6 |
| 20260502213109 | 54 | 55 | 0.0 | 1.7 | 0.00 | 0.15 | 0.15 | 89 | 1015.8 |
| 20260502212107 | 55 | 71 | 0.9 | 3.5 | 0.00 | 0.15 | 0.15 | 89 | 1015.8 |
| 20260502211105 | 54 | 79 | 0.0 | 0.0 | 0.00 | 0.15 | 0.15 | 90 | 1015.8 |
| 20260502210109 | 54 | 80 | 0.0 | 0.0 | 0.00 | 0.15 | 0.15 | 91 | 1015.8 |
| 20260502205107 | 55 | 73 | 0.0 | 0.0 | 0.00 | 0.15 | 0.15 | 91 | 1015.8 |
| 20260502204109 | 55 | 89 | 0.9 | 2.6 | 0.00 | 0.15 | 0.15 | 91 | 1015.9 |
| 20260502203110 | 55 | 338 | 0.9 | 3.5 | 0.00 | 0.15 | 0.15 | 91 | 1015.9 |
| 20260502202114 | 55 | 108 | 0.0 | 3.5 | 0.00 | 0.15 | 0.15 | 91 | 1015.9 |
| 20260502201113 | 54 | 142 | 0.0 | 2.6 | 0.00 | 0.15 | 0.15 | 91 | 1016.0 |
| 20260502200111 | 55 | 136 | 0.0 | 1.7 | 0.00 | 0.15 | 0.15 | 90 | 1016.0 |
| 20260502195100 | 54 | 169 | 0.9 | 5.2 | 0.00 | 0.15 | 0.15 | 92 | 1016.0 |
| 20260502194100 | 53 | 187 | 0.9 | 4.3 | 0.00 | 0.15 | 0.15 | 92 | 1016.1 |
| 20260502193106 | 54 | 201 | 0.0 | 2.6 | 0.00 | 0.15 | 0.15 | 90 | 1016.0 |
| 20260502192106 | 54 | 147 | 0.9 | 3.5 | 0.00 | 0.15 | 0.15 | 90 | 1016.0 |
| 20260502191109 | 54 | 147 | 1.7 | 5.2 | 0.00 | 0.15 | 0.15 | 90 | 1016.0 |
| 20260502190107 | 55 | 279 | 1.7 | 7.8 | 0.02 | 0.15 | 0.15 | 89 | 1015.9 |
| 20260502185106 | 55 | 189 | 0.9 | 6.1 | 0.05 | 0.15 | 0.15 | 89 | 1015.8 |
| 20260502184104 | 55 | 233 | 0.9 | 6.1 | 0.07 | 0.15 | 0.15 | 89 | 1015.6 |
| 20260502183108 | 54 | 122 | 0.9 | 4.3 | 0.09 | 0.15 | 0.15 | 91 | 1015.5 |
| 20260502182100 | 55 | 317 | 0.9 | 4.3 | 0.09 | 0.15 | 0.15 | 91 | 1015.6 |
| 20260502180107 | 56 | 165 | 3.5 | 8.7 | 0.09 | 0.15 | 0.15 | 86 | 1016.2 |
| 20260502170104 | 56 | 129 | 0.9 | 4.3 | 0.06 | 0.06 | 0.06 | 91 | 1016.2 |
| 20260502163102 | 56 | 60 | 0.9 | 5.2 | 0.06 | 0.06 | 0.06 | 89 | 1016.5 |
| 20260502161104 | 59 | 163 | 4.3 | 11.3 | 0.02 | 0.02 | 0.02 | 75 | 1016.5 |
| 20260502152101 | 70 | 288 | 5.2 | 10.4 | 0.00 | 0.00 | 0.00 | 56 | 1015.1 |
| 20260502151104 | 70 | 197 | 5.2 | 12.2 | 0.00 | 0.00 | 0.00 | 56 | 1015.3 |
| 20260502123057 | 67 | 356 | 5.2 | 8.7 | 0.00 | 0.00 | 0.00 | 61 | 1018.0 |
| 20260502122056 | 66 | 204 | 5.2 | 9.6 | 0.00 | 0.00 | 0.00 | 63 | 1018.2 |
| 20260502121055 | 66 | 203 | 7.0 | 13.0 | 0.00 | 0.00 | 0.00 | 61 | 1018.3 |
| 20260502115053 | 66 | 196 | 6.1 | 12.2 | 0.00 | 0.00 | 0.00 | 61 | 1018.6 |
| 20260502113056 | 67 | 163 | 3.5 | 7.8 | 0.00 | 0.00 | 0.00 | 62 | 1018.7 |
| 20260502112057 | 66 | 201 | 5.2 | 9.6 | 0.00 | 0.00 | 0.00 | 62 | 1018.8 |
| 20260502111057 | 66 | 205 | 5.2 | 9.6 | 0.00 | 0.00 | 0.00 | 62 | 1018.9 |
| 20260502110055 | 67 | 89 | 5.2 | 10.4 | 0.00 | 0.00 | 0.00 | 61 | 1018.8 |
| 20260502105057 | 66 | 96 | 3.5 | 7.0 | 0.00 | 0.00 | 0.00 | 62 | 1019.0 |
| 20260502104056 | 66 | 201 | 6.1 | 11.3 | 0.00 | 0.00 | 0.00 | 63 | 1019.1 |
| 20260502103055 | 67 | 202 | 6.1 | 11.3 | 0.00 | 0.00 | 0.00 | 62 | 1018.9 |
| 20260502102055 | 68 | 188 | 6.1 | 13.0 | 0.00 | 0.00 | 0.00 | 61 | 1018.9 |
| 20260502101057 | 67 | 200 | 7.0 | 14.8 | 0.00 | 0.00 | 0.00 | 62 | 1019.0 |
| 20260502071055 | 57 | 208 | 4.3 | 7.0 | 0.00 | 0.00 | 0.00 | 75 | 1020.8 |
| 20260502070052 | 55 | 222 | 3.5 | 6.1 | 0.00 | 0.00 | 0.00 | 78 | 1021.1 |
| 20260502064054 | 55 | 256 | 2.6 | 7.0 | 0.00 | 0.00 | 0.00 | 77 | 1021.2 |
| 20260502063054 | 55 | 277 | 1.7 | 5.2 | 0.00 | 0.00 | 0.00 | 74 | 1021.1 |
| 20260502062051 | 56 | 294 | 1.7 | 5.2 | 0.00 | 0.00 | 0.00 | 71 | 1020.9 |
| 20260502061054 | 56 | 174 | 2.6 | 7.0 | 0.00 | 0.00 | 0.00 | 70 | 1021.1 |
| 20260502060056 | 56 | 260 | 2.6 | 9.6 | 0.00 | 0.00 | 0.00 | 68 | 1021.3 |
| 20260502055056 | 56 | 84 | 2.6 | 8.7 | 0.00 | 0.00 | 0.00 | 67 | 1021.5 |
| 20260502053056 | 55 | 210 | 0.9 | 2.6 | 0.00 | 0.00 | 0.00 | 63 | 1021.5 |
| 20260502052050 | 55 | 131 | 1.7 | 3.5 | 0.00 | 0.00 | 0.00 | 63 | 1021.3 |
| 20260502045053 | 55 | 159 | 0.9 | 2.6 | 0.00 | 0.00 | 0.00 | 63 | 1021.3 |
| 20260502044053 | 55 | 164 | 1.7 | 4.3 | 0.00 | 0.00 | 0.00 | 61 | 1021.3 |
| 20260502042052 | 55 | 197 | 3.5 | 6.1 | 0.00 | 0.00 | 0.00 | 59 | 1021.2 |
| 20260502041052 | 55 | 176 | 3.5 | 6.1 | 0.00 | 0.00 | 0.00 | 57 | 1021.2 |
| 20260502035055 | 55 | 226 | 3.5 | 7.8 | 0.00 | 0.00 | 0.00 | 53 | 1021.4 |